FENGYUN 1C DEB

Satellite information

Favourite Embed

Satellite Type and Status

DEBRISIN ORBIT

Key statistics

Satellite FENGYUN 1C DEB at a glance.

Uptime

9715

Days in orbit

Revolutions

≈ 14.3

Per day

Orbit

SSO

Sun Synchronous Orbit

Inclination

99.0

Latest

Satellite identification and parameters

Extended collection of information and parameters for FENGYUN 1C DEB.

Object identification

Identified? True

Debris? True

Object name: FENGYUN 1C DEB

International designator: 1999-025CVW

Object number (NORAD): 32224

Object ID (CCSDS): 32224

Country: PEOPLES REPUBLIC OF CHINA (PRC)

Current information (Y/N): Y

RCS size: SMALL

Orbital parameters

Period: 100.417 minutes

Inclination: 98.9841 deg

SMA: 7156.468 km

Apoapsis: 833.575 km

Periapsis: 723.09 km

RAAN: 296.2781 deg

Eccentricy: 0.00771925

Argument of periapsis: 70.5749 deg

Mean anomaly: 290.3756 deg

Mean motion: 14.34018256 rev/day

Mean motion (dot): 0.0000151 rev/day2

B* drag term: 0.00053905647 1/REarth

Two-line elements (TLE)

Creation date: Dec. 11, 2025, 7:14 p.m.

Reference frame: TEME

Reference center: EARTH

Epoch: Dec. 11, 2025, 7:43 a.m. UTC

TLE line 0: 0 FENGYUN 1C DEB

TLE line 1: 1 32224U 99025CVW 25345.32194402 .00001510 00000-0 53906-3 0 9995

TLE line 2: 2 32224 98.9841 296.2781 0077192 70.5749 290.3756 14.34018256957037

Live tracking on map

Real-time ground track for satellite FENGYUN 1C DEB.

In-orbit conjunctions

A list of the most updated potential collisions computed for object FENGYUN 1C DEB.

Target Orbit TCA Probability of collision Miss distance Type
SL-12 R/B(AUX MOTOR) LEO 2024-11-29 08:13:00 0.0001122548 442.0 (m) ROCKET BODY
CZ-6A DEB LEO 2024-11-05 15:47:45 0.0001573357 987.0 (m) DEBRIS
COSMOS 1269 LEO 2024-10-17 17:46:28 0.0002610253 198.0 (m) PAYLOAD

Associated space launch

Chinese polar orbiting meteorological satellite

FENGYUN 1C DEB was lifted into orbit during the mission ‘Long March 4B | Feng Yun 1C’, on board a Long March 4B space rocket.

The launch took place on May 10, 1999, 1:33 a.m. from Launch Complex 7.

For more information about the launch, click the button.

Launch to space Long March 4B | Feng Yun 1C
Long March 4B | Feng Yun 1C

Agency: N/A

Status: Launch Successful

Launch date: May 10, 1999, 1:33 a.m. UTC

Rocket: Long March 4B

Launch pad: Launch Complex 7

Location: Taiyuan Satellite Launch Center, People's Republic of China

...

Latest news about this satellite

There are no fresh news available about this satellite. Check back as we update our databases every day.


Newsletter sign-up

Weekly statistics, charts and insights to help you stay on top of the space industry.